G8SIB-9 Weather Reports


time (UTC)temp
F
wind
direction
speed
knots
gust
knots
rain 1hr
in
rain 24hr
in
rain mn
in
humidity
%
barometer
mb
20260508013101 41 71 0.9 3.5 0.00 0.00 0.00 87 1013.9
20260508012101 41 84 0.9 2.6 0.00 0.00 0.00 88 1013.9
20260508011100 41 96 0.9 2.6 0.00 0.00 0.00 89 1013.9
20260508010100 41 96 0.9 2.6 0.00 0.00 0.00 88 1013.9
20260508005058 42 102 0.9 2.6 0.00 0.00 0.00 87 1013.8
20260508004058 42 108 0.9 2.6 0.00 0.00 0.00 85 1013.8
20260508003058 43 108 0.9 2.6 0.00 0.00 0.00 85 1013.8
20260508002056 43 111 0.9 3.5 0.00 0.00 0.00 84 1014.0
20260508001056 43 116 0.9 3.5 0.00 0.00 0.00 84 1014.0
20260508000056 43 116 0.9 3.5 0.00 0.00 0.00 85 1014.0
20260507235055 44 119 1.7 3.5 0.00 0.00 0.00 85 1014.2
20260507234054 44 122 1.7 3.5 0.00 0.00 0.00 83 1014.1
20260507233053 44 122 1.7 3.5 0.00 0.00 0.00 83 1014.2
20260507232052 44 118 2.6 5.2 0.00 0.00 0.00 83 1014.2
20260507231051 45 120 2.6 5.2 0.00 0.00 0.00 82 1014.3
20260507230050 45 120 2.6 5.2 0.00 0.00 0.00 81 1014.3
20260507225049 45 119 2.6 6.1 0.00 0.00 0.00 83 1014.3
20260507224048 45 116 2.6 6.1 0.00 0.00 0.00 82 1014.4
20260507223047 45 116 2.6 6.1 0.00 0.00 0.00 82 1014.3
20260507222046 46 114 2.6 6.1 0.00 0.00 0.00 82 1014.5
20260507221045 46 112 2.6 6.1 0.00 0.00 0.00 83 1014.4
20260507220044 47 112 2.6 6.1 0.00 0.00 0.00 81 1014.5
20260507215043 47 114 2.6 6.1 0.00 0.00 0.00 82 1014.4
20260507214042 47 115 2.6 6.1 0.00 0.00 0.00 82 1014.4
20260507213040 48 115 2.6 6.1 0.00 0.00 0.00 81 1014.5
20260507212040 48 118 2.6 6.1 0.00 0.00 0.00 81 1014.4
20260507211039 48 120 3.5 7.0 0.00 0.00 0.00 80 1014.4
20260507210038 49 120 3.5 7.0 0.00 0.00 0.00 79 1014.4
20260507205036 49 122 3.5 7.8 0.00 0.00 0.00 78 1014.4
20260507204036 49 123 4.3 8.7 0.00 0.00 0.00 78 1014.3
20260507203035 50 123 3.5 7.8 0.00 0.00 0.00 77 1014.3
20260507202035 50 124 4.3 8.7 0.00 0.00 0.00 76 1014.2
20260507201034 50 124 5.2 9.6 0.00 0.00 0.00 75 1014.1
20260507200034 51 124 5.2 9.6 0.00 0.00 0.00 74 1013.9
20260507195031 51 120 4.3 8.7 0.00 0.00 0.00 74 1013.8
20260507194031 51 121 4.3 8.7 0.00 0.00 0.00 73 1013.8
20260507193030 52 121 4.3 8.7 0.00 0.00 0.00 71 1013.7
20260507192029 52 123 4.3 9.6 0.00 0.00 0.00 70 1013.5
20260507191028 53 124 5.2 9.6 0.00 0.00 0.00 69 1013.6
20260507190027 53 124 5.2 9.6 0.00 0.00 0.00 68 1013.5
20260507185026 53 127 5.2 10.4 0.00 0.00 0.00 66 1013.5
20260507184025 54 129 6.1 11.3 0.00 0.00 0.00 65 1013.5
20260507183024 54 128 6.1 11.3 0.00 0.00 0.00 65 1013.5
20260507182023 54 130 6.1 11.3 0.00 0.00 0.00 64 1013.4
20260507181023 54 132 6.1 12.2 0.00 0.00 0.00 62 1016.4
20260507180022 54 132 6.1 12.2 0.00 0.00 0.00 62 1013.3
20260507175019 54 134 6.1 12.2 0.00 0.00 0.00 61 1013.4
20260507174018 54 141 6.1 11.3 0.00 0.00 0.00 60 1013.2
20260507173017 55 141 6.1 11.3 0.00 0.00 0.00 58 1013.2
20260507172014 55 143 6.1 11.3 0.00 0.00 0.00 58 1013.4
20260507171012 55 144 6.1 11.3 0.00 0.00 0.00 56 1013.4
20260507170008 55 127 5.2 9.6 0.00 0.00 0.00 57 1013.4
20260507165007 55 127 5.2 9.6 0.00 0.00 0.00 57 1013.4
20260507164005 56 126 4.3 8.7 0.00 0.00 0.00 55 1013.3
20260507163000 57 125 4.3 8.7 0.00 0.00 0.00 54 1013.3
20260507161959 57 125 4.3 8.7 0.00 0.00 0.00 54 1013.3
20260507160957 57 124 4.3 9.6 0.00 0.00 0.00 53 1013.4
20260507155957 57 130 5.2 9.6 0.00 0.00 0.00 53 1013.3
20260507154957 57 130 5.2 9.6 0.00 0.00 0.00 55 1013.4
20260507153956 57 134 5.2 10.4 0.00 0.00 0.00 56 1013.4
20260507152955 57 139 5.2 10.4 0.00 0.00 0.00 56 1013.4
20260507151954 57 139 5.2 10.4 0.00 0.00 0.00 56 1013.4
20260507150954 56 144 5.2 10.4 0.00 0.00 0.00 56 1013.3
20260507145953 57 148 5.2 10.4 0.00 0.00 0.00 56 1013.3
20260507144952 57 148 5.2 10.4 0.00 0.00 0.00 55 1013.3
20260507143952 57 151 6.1 11.3 0.00 0.00 0.00 53 1013.3
20260507142951 58 165 5.2 9.6 0.00 0.00 0.00 52 1013.4
20260507141950 59 165 5.2 9.6 0.00 0.00 0.00 50 1013.4
20260507140949 59 168 4.3 9.6 0.00 0.00 0.00 50 1013.5
20260507135948 60 147 4.3 8.7 0.00 0.00 0.00 49 1013.4
20260507134947 60 147 4.3 8.7 0.00 0.00 0.00 47 1013.4
20260507133946 60 135 3.5 7.8 0.00 0.00 0.00 45 1013.4
20260507132945 61 124 3.5 7.0 0.00 0.00 0.00 44 1013.4
20260507131944 62 124 3.5 7.0 0.00 0.00 0.00 45 1013.5
20260507130943 60 112 2.6 7.0 0.00 0.00 0.00 47 1013.5
20260507125943 62 117 2.6 6.1 0.00 0.00 0.00 45 1013.4
20260507124942 61 109 2.6 6.1 0.00 0.00 0.00 45 1013.5
20260507123941 62 110 2.6 6.1 0.00 0.00 0.00 44 1013.4
20260507122940 61 111 2.6 7.0 0.00 0.00 0.00 45 1013.4
20260507121940 61 111 2.6 6.1 0.00 0.00 0.00 44 1013.4
20260507120939 60 110 1.7 6.1 0.00 0.00 0.00 47 1013.5
20260507115939 61 107 1.7 6.1 0.00 0.00 0.00 45 1013.5
20260507114938 61 107 1.7 6.1 0.00 0.00 0.00 44 1013.6
20260507113937 63 103 1.7 7.0 0.00 0.00 0.00 45 1013.6
20260507112936 63 100 1.7 7.0 0.00 0.00 0.00 43 1013.6
20260507111936 63 100 1.7 7.0 0.00 0.00 0.00 45 1013.6
20260507110935 61 96 2.6 7.0 0.00 0.00 0.00 47 1013.7
20260507105934 59 99 2.6 7.0 0.00 0.00 0.00 49 1013.9
20260507104934 60 99 1.7 6.1 0.00 0.00 0.00 48 1013.9
20260507103934 59 105 1.7 6.1 0.00 0.00 0.00 49 1013.9
20260507102932 58 112 1.7 6.1 0.00 0.00 0.00 52 1014.0
20260507101932 59 112 1.7 6.1 0.00 0.00 0.00 49 1014.1
20260507100931 60 134 1.7 6.1 0.00 0.00 0.00 47 1014.0
20260507095930 61 130 1.7 6.1 0.00 0.00 0.00 45 1013.9
20260507094929 60 130 1.7 6.1 0.00 0.00 0.00 48 1013.9
20260507093928 58 126 1.7 7.0 0.00 0.00 0.00 50 1013.9
20260507092927 59 122 1.7 7.0 0.00 0.00 0.00 51 1013.9
20260507091927 58 122 1.7 7.0 0.00 0.00 0.00 50 1013.9
20260507090927 58 118 2.6 7.0 0.00 0.00 0.00 51 1013.9
20260507085926 57 114 2.6 7.0 0.00 0.00 0.00 53 1013.8
20260507084925 56 114 2.6 7.0 0.00 0.00 0.00 54 1013.8
20260507083924 56 110 2.6 7.0 0.00 0.00 0.00 56 1013.8
20260507082923 55 106 3.5 7.0 0.00 0.00 0.00 56 1013.7
20260507081922 56 106 3.5 7.0 0.00 0.00 0.00 55 1013.7
20260507080921 57 102 3.5 7.8 0.00 0.00 0.00 55 1013.7
20260507075920 56 96 3.5 7.8 0.00 0.00 0.00 55 1013.7
20260507074919 55 96 3.5 7.8 0.00 0.00 0.00 57 1013.7
20260507073918 55 93 3.5 7.8 0.00 0.00 0.00 57 1013.7
20260507072917 54 91 3.5 7.8 0.00 0.00 0.00 60 1013.5
20260507071915 53 91 3.5 7.8 0.00 0.00 0.00 63 1013.5
20260507070914 51 88 3.5 7.8 0.00 0.00 0.00 66 1013.4
20260507065914 51 83 3.5 7.0 0.00 0.00 0.00 69 1013.5
20260507064913 50 83 3.5 7.0 0.00 0.00 0.00 72 1013.5
20260507063912 49 78 2.6 6.1 0.00 0.00 0.00 73 1013.5
20260507062911 49 81 2.6 6.1 0.00 0.00 0.00 73 1013.5
20260507061911 48 81 2.6 6.1 0.00 0.00 0.00 75 1013.4
20260507060909 48 76 2.6 5.2 0.00 0.00 0.00 75 1013.3
20260507055909 48 64 1.7 4.3 0.00 0.00 0.00 76 1013.2
20260507054908 48 64 1.7 4.3 0.00 0.00 0.00 77 1013.2
20260507053907 47 52 1.7 3.5 0.00 0.00 0.00 78 1013.1
20260507052906 47 40 1.7 4.3 0.00 0.00 0.00 79 1013.1
20260507051905 46 40 1.7 4.3 0.00 0.00 0.00 80 1013.1
20260507050903 46 50 1.7 3.5 0.00 0.00 0.00 80 1013.0
20260507045903 46 53 1.7 3.5 0.00 0.00 0.00 81 1013.1
20260507044902 46 53 1.7 3.5 0.00 0.00 0.00 81 1013.0
20260507043902 46 56 0.9 3.5 0.00 0.00 0.00 81 1012.9
20260507042901 46 59 0.9 3.5 0.00 0.00 0.00 81 1012.8
20260507041900 46 59 0.9 3.5 0.00 0.00 0.00 81 1012.8
20260507040859 46 62 1.7 3.5 0.00 0.00 0.00 81 1012.8
20260507035858 46 61 1.7 4.3 0.00 0.00 0.00 80 1012.7
20260507034857 46 61 1.7 4.3 0.00 0.00 0.00 80 1012.7
20260507033857 47 41 0.9 2.6 0.00 0.00 0.00 79 1012.7
20260507032856 46 32 0.9 2.6 0.00 0.00 0.00 80 1012.6
20260507031855 47 32 0.9 2.6 0.00 0.00 0.00 80 1012.6
20260507030854 47 22 1.7 3.5 0.00 0.00 0.00 80 1012.6
20260507025853 47 34 2.6 5.2 0.00 0.00 0.00 80 1012.6
20260507024853 47 42 2.6 5.2 0.00 0.00 0.00 80 1012.6
20260507023852 47 50 2.6 5.2 0.00 0.00 0.00 80 1012.5
20260507022851 47 58 3.5 6.1 0.00 0.00 0.00 81 1012.5
20260507021850 47 58 3.5 6.1 0.00 0.00 0.00 82 1012.5
20260507020849 47 66 3.5 7.0 0.00 0.00 0.00 81 1012.6
20260507015848 47 64 3.5 7.0 0.00 0.00 0.00 80 1012.4
20260507014847 47 64 3.5 7.0 0.00 0.00 0.00 80 1012.4
20260507013846 47 62 3.5 7.0 0.00 0.00 0.00 80 1012.4